Regional Weather Roundup
Issued by NWS

Home | Current Version | Previous Version | Graphics & Text | Print | Product List | Glossary On
Versions: 1 2 3 4 5 6 7 8 9 10 11 12 13 14 15 16 17 18 19 20 21 22 23 24 25 26 27 28 29 30 31 32 33 34 35 36 37 38 39 40 41 42 43 44 45 46 47 48 49 50
000
ASUS43 KBIS 281310
RWRND

NORTH DAKOTA REGIONAL WEATHER ROUNDUP
NATIONAL WEATHER SERVICE BISMARCK ND
800 AM CDT SAT MAY 28 2016

NOTE: "FAIR" INDICATES FEW OR NO CLOUDS BELOW 12,000 FEET WITH NO
SIGNIFICANT WEATHER AND/OR OBSTRUCTIONS TO VISIBILITY.


NDZ001>003-009>011-017-281400-
NORTHWEST NORTH DAKOTA

CITY           SKY/WX    TMP DP  RH WIND       PRES   REMARKS
WILLISTON      CLOUDY    56  52  86 E9        29.89S
MINOT          CLOUDY    57  53  86 N8        29.89S
MINOT AFB      CLOUDY    54  52  92 N8        29.89S
$$

NDZ018>021-031>035-040>046-281400-
SOUTHWEST NORTH DAKOTA

CITY           SKY/WX    TMP DP  RH WIND       PRES   REMARKS
BISMARCK       CLOUDY    58  55  90 E8        29.87S FOG
DICKINSON      FOG       49  49 100 E9        29.86R VSB 1/4
GARRISON         N/A     56  54  93 NE6       29.88S
HETTINGER ARPT CLOUDY    56  49  77 NW3       29.88R
$$

NDZ004>008-012>016-024-026-027-054-281400-
NORTHEAST NORTH DAKOTA

CITY           SKY/WX    TMP DP  RH WIND       PRES   REMARKS
GRAND FORKS    CLOUDY    64  55  72 CALM      29.83S
GRND FRKS AFB  PTSUNNY   63  57  81 SE2       29.84S
DEVILS LAKE    CLOUDY    56  55  97 N6        29.88R FOG
$$

NDZ022-023-025-028>030-036>039-047>053-281400-
SOUTHEAST NORTH DAKOTA

CITY           SKY/WX    TMP DP  RH WIND       PRES   REMARKS
FARGO          MOSUNNY   62  57  83 NE7       29.80S
JAMESTOWN      CLOUDY    61  58  90 N12       29.83S
$$




USA.gov is the U.S. government's official web portal to all federal, state and local government web resources and services.